HST 1 20580U 90037B 25181.65432016 .00004297 00000-0 15696-3 0 9990 2 20580 28.4688 313.6252 0001800 237.5948 122.4473 15.25438442734748 ISS (ZARYA) 1 25544U 98067A 25182.18744301 .00005176 00000-0 97537-4 0 9990 2 25544 51.6345 237.6869 0002331 315.1210 44.9590 15.50314091517338 CXO 1 25867U 99040B 25182.66035926 .00000377 00000-0 00000-0 0 9992 2 25867 49.8474 128.9801 8399593 309.7738 0.2684 0.37807753 15992